Time,TemperatureF,DewpointF,PressureIn,WindDirection,WindDirectionDegrees,WindSpeedMPH,WindSpeedGustMPH,Humidity,HourlyPrecipIn,Conditions,Clouds,dailyrainin,SoftwareType,DateUTC
2013-04-18 00:03:00,61.7,55.5,30.20,North,0,1.0,1.0,80,0.00,,,0.00,WeatherCatV1.15B25,2013-04-18 04:03:00,
2013-04-18 00:08:00,61.8,55.6,30.19,WNW,288,0.0,1.0,80,0.00,,,0.00,WeatherCatV1.15B25,2013-04-18 04:08:00,
2013-04-18 00:13:00,61.8,55.2,30.19,WNW,299,0.0,2.0,79,0.00,,,0.00,WeatherCatV1.15B25,2013-04-18 04:13:00,
2013-04-18 00:18:00,61.8,55.9,30.19,WNW,299,1.0,1.0,81,0.00,,,0.00,WeatherCatV1.15B25,2013-04-18 04:18:00,
2013-04-18 00:23:00,61.7,55.1,30.19,West,277,0.0,2.0,79,0.00,,,0.00,WeatherCatV1.15B25,2013-04-18 04:23:00,
2013-04-18 00:28:00,61.7,55.1,30.19,West,277,0.0,0.0,79,0.00,,,0.00,WeatherCatV1.15B25,2013-04-18 04:28:00,
2013-04-18 00:33:00,61.7,55.5,30.19,SW,220,0.0,1.0,80,0.00,,,0.00,WeatherCatV1.15B25,2013-04-18 04:33:00,
2013-04-18 00:38:00,61.5,55.3,30.19,NW,304,0.0,0.0,80,0.00,,,0.00,WeatherCatV1.15B25,2013-04-18 04:38:00,
2013-04-18 00:43:00,61.4,55.2,30.19,West,279,1.0,2.0,80,0.00,,,0.00,WeatherCatV1.15B25,2013-04-18 04:43:00,
2013-04-18 00:48:00,61.5,55.3,30.19,West,279,0.0,2.0,80,0.00,,,0.00,WeatherCatV1.15B25,2013-04-18 04:48:00,
2013-04-18 00:53:00,61.5,55.6,30.18,NNE,30,0.0,0.0,81,0.00,,,0.00,WeatherCatV1.15B25,2013-04-18 04:53:00,
2013-04-18 00:58:00,61.4,55.5,30.18,North,5,0.0,1.0,81,0.00,,,0.00,WeatherCatV1.15B25,2013-04-18 04:58:00,
2013-04-18 01:03:00,61.3,55.1,30.18,North,5,0.0,2.0,80,0.00,,,0.00,WeatherCatV1.15B25,2013-04-18 05:03:00,
2013-04-18 01:08:00,61.4,54.8,30.18,NNW,329,2.0,2.0,79,0.00,,,0.00,WeatherCatV1.15B25,2013-04-18 05:08:00,
2013-04-18 01:13:00,61.7,54.8,30.17,SW,232,0.0,1.0,78,0.00,,,0.00,WeatherCatV1.15B25,2013-04-18 05:13:00,
2013-04-18 01:18:00,61.9,55.0,30.17,NNE,16,0.0,1.0,78,0.00,,,0.00,WeatherCatV1.15B25,2013-04-18 05:18:00,
2013-04-18 01:23:00,62.0,55.1,30.17,West,263,2.0,3.0,78,0.00,,,0.00,WeatherCatV1.15B25,2013-04-18 05:23:00,
2013-04-18 01:28:00,62.2,54.9,30.16,NW,325,1.0,2.0,77,0.00,,,0.00,WeatherCatV1.15B25,2013-04-18 05:28:00,
2013-04-18 01:33:00,62.4,55.1,30.16,NW,311,2.0,2.0,77,0.00,,,0.00,WeatherCatV1.15B25,2013-04-18 05:33:00,
2013-04-18 01:38:00,62.4,55.1,30.16,NW,311,0.0,2.0,77,0.00,,,0.00,WeatherCatV1.15B25,2013-04-18 05:38:00,
2013-04-18 01:43:00,62.4,54.7,30.16,West,281,0.0,3.0,76,0.00,,,0.00,WeatherCatV1.15B25,2013-04-18 05:43:00,
2013-04-18 01:48:00,62.5,54.8,30.16,WNW,287,2.0,3.0,76,0.00,,,0.00,WeatherCatV1.15B25,2013-04-18 05:48:00,
2013-04-18 01:53:00,62.5,54.5,30.16,WNW,291,0.0,4.0,75,0.00,,,0.00,WeatherCatV1.15B25,2013-04-18 05:53:00,
2013-04-18 01:58:00,62.7,54.7,30.16,NW,304,2.0,2.0,75,0.00,,,0.00,WeatherCatV1.15B25,2013-04-18 05:58:00,
2013-04-18 02:03:00,62.8,54.4,30.16,NW,317,1.0,3.0,74,0.00,,,0.00,WeatherCatV1.15B25,2013-04-18 06:03:00,
2013-04-18 02:08:00,63.2,54.4,30.16,NW,319,2.0,4.0,73,0.00,,,0.00,WeatherCatV1.15B25,2013-04-18 06:08:00,
2013-04-18 02:13:00,63.5,54.7,30.16,West,261,4.0,4.0,73,0.00,,,0.00,WeatherCatV1.15B25,2013-04-18 06:13:00,
2013-04-18 02:18:00,63.6,54.4,30.16,WNW,286,3.0,5.0,72,0.00,,,0.00,WeatherCatV1.15B25,2013-04-18 06:18:00,
2013-04-18 02:23:00,63.8,54.6,30.16,NW,315,0.0,4.0,72,0.00,,,0.00,WeatherCatV1.15B25,2013-04-18 06:23:00,
2013-04-18 02:28:00,63.9,54.7,30.17,NNW,332,3.0,4.0,72,0.00,,,0.00,WeatherCatV1.15B25,2013-04-18 06:28:00,
2013-04-18 02:33:00,64.0,54.8,30.17,WSW,257,1.0,1.0,72,0.00,,,0.00,WeatherCatV1.15B25,2013-04-18 06:33:00,
2013-04-18 02:38:00,64.1,55.3,30.17,SW,234,0.0,1.0,73,0.00,,,0.00,WeatherCatV1.15B25,2013-04-18 06:38:00,
2013-04-18 02:43:00,63.7,55.3,30.18,SW,231,1.0,5.0,74,0.00,,,0.00,WeatherCatV1.15B25,2013-04-18 06:43:00,
2013-04-18 02:48:00,63.3,55.6,30.18,SW,219,1.0,1.0,76,0.00,,,0.00,WeatherCatV1.15B25,2013-04-18 06:48:00,
2013-04-18 02:53:00,62.8,55.8,30.18,SW,229,0.0,4.0,78,0.00,,,0.00,WeatherCatV1.15B25,2013-04-18 06:53:00,
2013-04-18 02:58:00,62.3,56.0,30.18,SW,225,3.0,3.0,80,0.00,,,0.00,WeatherCatV1.15B25,2013-04-18 06:58:00,
2013-04-18 03:03:00,61.8,56.2,30.18,West,281,2.0,3.0,82,0.00,,,0.00,WeatherCatV1.15B25,2013-04-18 07:03:00,
2013-04-18 03:08:00,61.2,56.3,30.18,WSW,246,3.0,5.0,84,0.00,,,0.00,WeatherCatV1.15B25,2013-04-18 07:08:00,
2013-04-18 03:13:00,60.7,56.2,30.18,West,276,1.0,3.0,85,0.00,,,0.00,WeatherCatV1.15B25,2013-04-18 07:13:00,
2013-04-18 03:18:00,60.4,56.2,30.18,West,276,1.0,1.0,86,0.00,,,0.00,WeatherCatV1.15B25,2013-04-18 07:18:00,
2013-04-18 03:23:00,60.2,56.0,30.18,West,264,0.0,1.0,86,0.00,,,0.00,WeatherCatV1.15B25,2013-04-18 07:23:00,
2013-04-18 03:28:00,60.1,55.9,30.18,North,0,0.0,0.0,86,0.00,,,0.00,WeatherCatV1.15B25,2013-04-18 07:28:00,
2013-04-18 03:33:00,60.0,56.1,30.18,North,0,1.0,2.0,87,0.00,,,0.00,WeatherCatV1.15B25,2013-04-18 07:33:00,
2013-04-18 03:38:00,60.0,56.1,30.18,WNW,291,2.0,3.0,87,0.00,,,0.00,WeatherCatV1.15B25,2013-04-18 07:38:00,
2013-04-18 03:43:00,60.1,55.9,30.18,WNW,294,2.0,4.0,86,0.00,,,0.00,WeatherCatV1.15B25,2013-04-18 07:43:00,
2013-04-18 03:48:00,60.4,55.9,30.18,West,260,2.0,5.0,85,0.00,,,0.00,WeatherCatV1.15B25,2013-04-18 07:48:00,
2013-04-18 03:53:00,61.0,55.8,30.18,West,280,2.0,3.0,83,0.00,,,0.00,WeatherCatV1.15B25,2013-04-18 07:53:00,
2013-04-18 03:58:00,61.4,56.2,30.18,West,272,3.0,5.0,83,0.00,,,0.00,WeatherCatV1.15B25,2013-04-18 07:58:00,
2013-04-18 04:03:00,61.6,56.0,30.18,NW,306,1.0,3.0,82,0.00,,,0.00,WeatherCatV1.15B25,2013-04-18 08:03:00,
2013-04-18 04:08:00,61.6,56.0,30.18,NW,304,0.0,1.0,82,0.00,,,0.00,WeatherCatV1.15B25,2013-04-18 08:08:00,
2013-04-18 04:13:00,61.6,56.0,30.18,ENE,64,0.0,2.0,82,0.00,,,0.00,WeatherCatV1.15B25,2013-04-18 08:13:00,
2013-04-18 04:18:00,61.5,55.9,30.18,West,275,2.0,2.0,82,0.00,,,0.00,WeatherCatV1.15B25,2013-04-18 08:18:00,
2013-04-18 04:23:00,61.5,55.9,30.18,SW,229,1.0,2.0,82,0.00,,,0.00,WeatherCatV1.15B25,2013-04-18 08:23:00,
2013-04-18 04:28:00,61.5,56.3,30.18,West,278,2.0,4.0,83,0.00,,,0.00,WeatherCatV1.15B25,2013-04-18 08:28:00,
2013-04-18 04:33:00,61.4,56.2,30.18,West,267,0.0,4.0,83,0.00,,,0.00,WeatherCatV1.15B25,2013-04-18 08:33:00,
2013-04-18 04:38:00,61.4,56.2,30.18,NW,306,2.0,2.0,83,0.00,,,0.00,WeatherCatV1.15B25,2013-04-18 08:38:00,
2013-04-18 04:43:00,61.4,56.2,30.18,West,262,2.0,3.0,83,0.00,,,0.00,WeatherCatV1.15B25,2013-04-18 08:43:00,
2013-04-18 04:48:00,61.4,56.2,30.18,SSW,210,0.0,0.0,83,0.00,,,0.00,WeatherCatV1.15B25,2013-04-18 08:48:00,
2013-04-18 04:53:00,61.3,56.1,30.18,SW,231,0.0,0.0,83,0.00,,,0.00,WeatherCatV1.15B25,2013-04-18 08:53:00,
2013-04-18 04:58:00,61.3,56.1,30.18,WSW,252,0.0,2.0,83,0.00,,,0.00,WeatherCatV1.15B25,2013-04-18 08:58:00,
2013-04-18 05:03:00,61.2,56.0,30.18,West,269,0.0,3.0,83,0.00,,,0.00,WeatherCatV1.15B25,2013-04-18 09:03:00,
2013-04-18 05:08:00,61.2,56.0,30.18,WSW,246,4.0,4.0,83,0.00,,,0.00,WeatherCatV1.15B25,2013-04-18 09:08:00,
2013-04-18 05:13:00,61.2,56.0,30.18,WNW,289,1.0,1.0,83,0.00,,,0.00,WeatherCatV1.15B25,2013-04-18 09:13:00,
2013-04-18 05:18:00,61.1,56.2,30.18,SSE,150,0.0,1.0,84,0.00,,,0.00,WeatherCatV1.15B25,2013-04-18 09:18:00,
2013-04-18 05:23:00,61.1,56.2,30.17,NE,55,0.0,5.0,84,0.00,,,0.00,WeatherCatV1.15B25,2013-04-18 09:23:00,
2013-04-18 05:28:00,61.1,56.2,30.18,NW,320,1.0,2.0,84,0.00,,,0.00,WeatherCatV1.15B25,2013-04-18 09:28:00,
2013-04-18 05:33:00,61.1,56.2,30.18,SSW,213,0.0,5.0,84,0.00,,,0.00,WeatherCatV1.15B25,2013-04-18 09:33:00,
2013-04-18 05:38:00,61.1,56.6,30.18,SW,236,0.0,3.0,85,0.00,,,0.00,WeatherCatV1.15B25,2013-04-18 09:38:00,
2013-04-18 05:43:00,61.2,57.0,30.18,WSW,241,1.0,5.0,86,0.00,,,0.00,WeatherCatV1.15B25,2013-04-18 09:43:00,
2013-04-18 05:48:00,61.5,56.9,30.18,West,269,5.0,5.0,85,0.00,,,0.00,WeatherCatV1.15B25,2013-04-18 09:48:00,
2013-04-18 05:53:00,61.6,57.0,30.18,NNW,346,1.0,3.0,85,0.00,,,0.00,WeatherCatV1.15B25,2013-04-18 09:53:00,
2013-04-18 05:58:00,61.6,57.0,30.18,WSW,241,0.0,5.0,85,0.00,,,0.00,WeatherCatV1.15B25,2013-04-18 09:58:00,
2013-04-18 06:03:00,61.6,57.0,30.18,North,355,2.0,4.0,85,0.00,,,0.00,WeatherCatV1.15B25,2013-04-18 10:03:00,
2013-04-18 06:08:00,61.5,56.9,30.18,NNW,339,1.0,2.0,85,0.00,,,0.00,WeatherCatV1.15B25,2013-04-18 10:08:00,
2013-04-18 06:13:00,61.5,57.3,30.18,NNE,30,3.0,7.0,86,0.00,,,0.00,WeatherCatV1.15B25,2013-04-18 10:13:00,
2013-04-18 06:18:00,61.5,57.3,30.18,WNW,282,2.0,3.0,86,0.00,,,0.00,WeatherCatV1.15B25,2013-04-18 10:18:00,
2013-04-18 06:23:00,61.5,57.3,30.18,WNW,286,3.0,8.0,86,0.00,,,0.00,WeatherCatV1.15B25,2013-04-18 10:23:00,
2013-04-18 06:28:00,61.6,57.4,30.18,East,100,0.0,1.0,86,0.00,,,0.00,WeatherCatV1.15B25,2013-04-18 10:28:00,
2013-04-18 06:33:00,61.6,57.4,30.18,West,272,3.0,5.0,86,0.00,,,0.00,WeatherCatV1.15B25,2013-04-18 10:33:00,
2013-04-18 06:38:00,61.6,57.4,30.18,West,271,0.0,3.0,86,0.00,,,0.00,WeatherCatV1.15B25,2013-04-18 10:38:00,
2013-04-18 06:43:00,61.5,57.3,30.18,WNW,299,1.0,4.0,86,0.00,,,0.00,WeatherCatV1.15B25,2013-04-18 10:43:00,
2013-04-18 06:48:00,61.5,57.3,30.18,South,185,0.0,6.0,86,0.00,,,0.00,WeatherCatV1.15B25,2013-04-18 10:48:00,
2013-04-18 06:53:00,61.5,57.3,30.18,NW,305,1.0,5.0,86,0.00,,,0.00,WeatherCatV1.15B25,2013-04-18 10:53:00,
2013-04-18 06:58:00,61.5,57.3,30.18,WNW,288,1.0,2.0,86,0.00,,,0.00,WeatherCatV1.15B25,2013-04-18 10:58:00,
2013-04-18 07:03:00,61.5,57.6,30.18,SW,227,0.0,6.0,87,0.00,,,0.00,WeatherCatV1.15B25,2013-04-18 11:03:00,
2013-04-18 07:08:00,61.6,57.4,30.18,ESE,103,1.0,2.0,86,0.00,,,0.00,WeatherCatV1.15B25,2013-04-18 11:08:00,
2013-04-18 07:13:00,61.6,57.4,30.18,WNW,288,1.0,6.0,86,0.00,,,0.00,WeatherCatV1.15B25,2013-04-18 11:13:00,
2013-04-18 07:18:00,61.6,57.4,30.18,WNW,290,0.0,2.0,86,0.00,,,0.00,WeatherCatV1.15B25,2013-04-18 11:18:00,
2013-04-18 07:23:00,61.7,57.5,30.18,WSW,250,1.0,3.0,86,0.00,,,0.00,WeatherCatV1.15B25,2013-04-18 11:23:00,
2013-04-18 07:28:00,61.7,57.5,30.19,West,260,3.0,4.0,86,0.00,,,0.00,WeatherCatV1.15B25,2013-04-18 11:28:00,
2013-04-18 07:33:00,61.7,57.5,30.19,NNW,331,4.0,4.0,86,0.00,,,0.00,WeatherCatV1.15B25,2013-04-18 11:33:00,
2013-04-18 07:38:00,61.8,57.6,30.19,West,260,0.0,3.0,86,0.00,,,0.00,WeatherCatV1.15B25,2013-04-18 11:38:00,
2013-04-18 07:43:00,61.8,57.6,30.19,West,277,1.0,6.0,86,0.00,,,0.00,WeatherCatV1.15B25,2013-04-18 11:43:00,
2013-04-18 07:48:00,61.9,58.0,30.19,WSW,253,4.0,5.0,87,0.00,,,0.00,WeatherCatV1.15B25,2013-04-18 11:48:00,
2013-04-18 07:53:00,61.9,57.7,30.19,West,275,2.0,4.0,86,0.00,,,0.00,WeatherCatV1.15B25,2013-04-18 11:53:00,
2013-04-18 07:58:00,62.0,57.8,30.19,SW,217,0.0,5.0,86,0.00,,,0.00,WeatherCatV1.15B25,2013-04-18 11:58:00,
2013-04-18 08:03:00,62.1,57.9,30.19,SW,225,0.0,6.0,86,0.00,,,0.00,WeatherCatV1.15B25,2013-04-18 12:03:00,
2013-04-18 08:08:00,62.2,58.0,30.19,WSW,248,3.0,5.0,86,0.00,,,0.00,WeatherCatV1.15B25,2013-04-18 12:08:00,
2013-04-18 08:13:00,62.3,58.1,30.19,WNW,294,0.0,4.0,86,0.00,,,0.00,WeatherCatV1.15B25,2013-04-18 12:13:00,
2013-04-18 08:18:00,62.4,57.8,30.19,SW,235,2.0,7.0,85,0.00,,,0.00,WeatherCatV1.15B25,2013-04-18 12:18:00,
2013-04-18 08:23:00,62.5,57.9,30.19,West,262,2.0,6.0,85,0.00,,,0.00,WeatherCatV1.15B25,2013-04-18 12:23:00,
2013-04-18 08:28:00,62.6,58.0,30.19,NNE,20,0.0,3.0,85,0.00,,,0.00,WeatherCatV1.15B25,2013-04-18 12:28:00,
2013-04-18 08:33:00,62.7,58.1,30.19,West,265,4.0,6.0,85,0.00,,,0.00,WeatherCatV1.15B25,2013-04-18 12:33:00,
2013-04-18 08:38:00,62.8,58.2,30.19,NW,323,2.0,5.0,85,0.00,,,0.00,WeatherCatV1.15B25,2013-04-18 12:38:00,
2013-04-18 08:43:00,62.9,58.3,30.19,SW,234,0.0,4.0,85,0.00,,,0.00,WeatherCatV1.15B25,2013-04-18 12:43:00,
2013-04-18 08:48:00,63.0,58.4,30.19,West,262,3.0,3.0,85,0.00,,,0.00,WeatherCatV1.15B25,2013-04-18 12:48:00,
2013-04-18 08:53:00,63.1,58.2,30.19,South,184,2.0,4.0,84,0.00,,,0.00,WeatherCatV1.15B25,2013-04-18 12:53:00,
2013-04-18 08:58:00,63.3,58.4,30.19,SSW,202,0.0,4.0,84,0.00,,,0.00,WeatherCatV1.15B25,2013-04-18 12:58:00,
2013-04-18 09:03:00,63.7,58.8,30.19,West,270,1.0,6.0,84,0.00,,,0.00,WeatherCatV1.15B25,2013-04-18 13:03:00,
2013-04-18 09:08:00,64.0,58.7,30.20,WNW,290,2.0,10.0,83,0.00,,,0.00,WeatherCatV1.15B25,2013-04-18 13:08:00,
2013-04-18 09:13:00,64.0,58.7,30.20,West,271,4.0,5.0,83,0.00,,,0.00,WeatherCatV1.15B25,2013-04-18 13:13:00,
2013-04-18 09:18:00,64.1,58.5,30.20,SSW,192,3.0,5.0,82,0.00,,,0.00,WeatherCatV1.15B25,2013-04-18 13:18:00,
2013-04-18 09:23:00,64.2,58.6,30.20,WSW,238,1.0,9.0,82,0.00,,,0.00,WeatherCatV1.15B25,2013-04-18 13:23:00,
2013-04-18 09:28:00,64.4,58.8,30.20,WSW,248,5.0,8.0,82,0.00,,,0.00,WeatherCatV1.15B25,2013-04-18 13:28:00,
2013-04-18 09:33:00,64.6,58.6,30.19,NNE,31,1.0,8.0,81,0.00,,,0.00,WeatherCatV1.15B25,2013-04-18 13:33:00,
2013-04-18 09:38:00,64.9,58.6,30.19,West,262,3.0,13.0,80,0.00,,,0.00,WeatherCatV1.15B25,2013-04-18 13:38:00,
2013-04-18 09:43:00,64.9,58.6,30.19,WNW,289,6.0,6.0,80,0.00,,,0.00,WeatherCatV1.15B25,2013-04-18 13:43:00,
2013-04-18 09:48:00,64.9,58.6,30.19,SSE,165,4.0,10.0,80,0.00,,,0.00,WeatherCatV1.15B25,2013-04-18 13:48:00,
2013-04-18 09:53:00,65.0,58.3,30.19,West,263,3.0,4.0,79,0.00,,,0.00,WeatherCatV1.15B25,2013-04-18 13:53:00,
2013-04-18 09:58:00,65.4,58.4,30.20,SSW,211,2.0,10.0,78,0.00,,,0.00,WeatherCatV1.15B25,2013-04-18 13:58:00,
2013-04-18 10:03:00,65.6,57.8,30.19,ENE,59,0.0,5.0,76,0.00,,,0.00,WeatherCatV1.15B25,2013-04-18 14:03:00,
2013-04-18 10:08:00,65.7,57.9,30.19,WNW,299,0.0,7.0,76,0.00,,,0.00,WeatherCatV1.15B25,2013-04-18 14:08:00,
2013-04-18 10:13:00,65.5,57.7,30.20,SSW,213,3.0,8.0,76,0.00,,,0.00,WeatherCatV1.15B25,2013-04-18 14:13:00,
2013-04-18 10:18:00,65.3,57.9,30.19,WSW,240,1.0,4.0,77,0.00,,,0.00,WeatherCatV1.15B25,2013-04-18 14:18:00,
2013-04-18 10:23:00,65.3,57.9,30.19,WSW,239,4.0,7.0,77,0.00,,,0.00,WeatherCatV1.15B25,2013-04-18 14:23:00,
2013-04-18 10:28:00,65.3,57.9,30.19,SW,220,2.0,6.0,77,0.00,,,0.00,WeatherCatV1.15B25,2013-04-18 14:28:00,
2013-04-18 10:33:00,65.4,57.3,30.19,South,190,3.0,10.0,75,0.00,,,0.00,WeatherCatV1.15B25,2013-04-18 14:33:00,
2013-04-18 10:38:00,65.5,57.4,30.19,West,264,2.0,4.0,75,0.00,,,0.00,WeatherCatV1.15B25,2013-04-18 14:38:00,
2013-04-18 10:43:00,65.7,57.2,30.19,ESE,109,4.0,8.0,74,0.00,,,0.00,WeatherCatV1.15B25,2013-04-18 14:43:00,
2013-04-18 10:48:00,65.8,57.6,30.19,SSE,168,6.0,6.0,75,0.00,,,0.00,WeatherCatV1.15B25,2013-04-18 14:48:00,
2013-04-18 10:53:00,66.0,57.5,30.19,WSW,249,5.0,12.0,74,0.00,,,0.00,WeatherCatV1.15B25,2013-04-18 14:53:00,
2013-04-18 10:58:00,66.5,57.2,30.19,SW,236,7.0,12.0,72,0.00,,,0.00,WeatherCatV1.15B25,2013-04-18 14:58:00,
2013-04-18 11:03:00,66.5,57.6,30.19,WSW,239,9.0,12.0,73,0.00,,,0.00,WeatherCatV1.15B25,2013-04-18 15:03:00,
2013-04-18 11:08:00,66.3,57.0,30.19,West,279,8.0,8.0,72,0.00,,,0.00,WeatherCatV1.15B25,2013-04-18 15:08:00,
2013-04-18 11:13:00,66.1,56.8,30.19,SW,226,3.0,16.0,72,0.00,,,0.00,WeatherCatV1.15B25,2013-04-18 15:13:00,
2013-04-18 11:18:00,65.9,57.0,30.19,WSW,239,2.0,10.0,73,0.00,,,0.00,WeatherCatV1.15B25,2013-04-18 15:18:00,
2013-04-18 11:23:00,65.9,57.4,30.19,SW,235,5.0,5.0,74,0.00,,,0.00,WeatherCatV1.15B25,2013-04-18 15:23:00,
2013-04-18 11:28:00,65.9,57.4,30.19,WNW,296,3.0,7.0,74,0.00,,,0.00,WeatherCatV1.15B25,2013-04-18 15:28:00,
2013-04-18 11:33:00,66.0,57.5,30.19,WSW,250,7.0,7.0,74,0.00,,,0.00,WeatherCatV1.15B25,2013-04-18 15:33:00,
2013-04-18 11:43:00,66.1,57.6,30.19,South,179,0.0,5.0,74,0.00,,,0.00,WeatherCatV1.15B25,2013-04-18 15:43:00,
2013-04-18 11:48:00,66.0,57.5,30.19,WSW,237,7.0,10.0,74,0.00,,,0.00,WeatherCatV1.15B25,2013-04-18 15:48:00,
2013-04-18 11:53:00,66.0,57.1,30.19,SSW,206,6.0,10.0,73,0.00,,,0.00,WeatherCatV1.15B25,2013-04-18 15:53:00,
2013-04-18 11:58:00,66.1,56.4,30.19,West,271,5.0,14.0,71,0.00,,,0.00,WeatherCatV1.15B25,2013-04-18 15:58:00,
2013-04-18 12:03:00,66.3,56.2,30.19,WSW,242,4.0,6.0,70,0.00,,,0.00,WeatherCatV1.15B25,2013-04-18 16:03:00,
2013-04-18 12:08:00,66.6,56.1,30.19,North,355,0.0,9.0,69,0.00,,,0.00,WeatherCatV1.15B25,2013-04-18 16:08:00,
2013-04-18 12:13:00,66.7,55.8,30.19,WNW,297,7.0,19.0,68,0.00,,,0.00,WeatherCatV1.15B25,2013-04-18 16:13:00,
2013-04-18 12:18:00,66.7,56.2,30.19,SW,236,13.0,13.0,69,0.00,,,0.00,WeatherCatV1.15B25,2013-04-18 16:18:00,
2013-04-18 12:23:00,66.8,56.3,30.19,South,186,7.0,16.0,69,0.00,,,0.00,WeatherCatV1.15B25,2013-04-18 16:23:00,
2013-04-18 12:28:00,66.9,56.8,30.18,West,267,6.0,15.0,70,0.00,,,0.00,WeatherCatV1.15B25,2013-04-18 16:28:00,
2013-04-18 12:33:00,67.1,57.0,30.18,SW,234,6.0,8.0,70,0.00,,,0.00,WeatherCatV1.15B25,2013-04-18 16:33:00,
2013-04-18 12:38:00,67.5,57.0,30.18,West,275,8.0,13.0,69,0.00,,,0.00,WeatherCatV1.15B25,2013-04-18 16:38:00,
2013-04-18 12:43:00,67.4,56.9,30.18,SW,233,4.0,13.0,69,0.00,,,0.00,WeatherCatV1.15B25,2013-04-18 16:43:00,
2013-04-18 12:48:00,67.5,57.0,30.18,SW,223,8.0,15.0,69,0.00,,,0.00,WeatherCatV1.15B25,2013-04-18 16:48:00,
2013-04-18 12:53:00,67.9,56.9,30.18,West,270,1.0,11.0,68,0.00,,,0.00,WeatherCatV1.15B25,2013-04-18 16:53:00,
2013-04-18 12:58:00,67.7,56.7,30.18,NNW,336,2.0,14.0,68,0.00,,,0.00,WeatherCatV1.15B25,2013-04-18 16:58:00,
2013-04-18 13:03:00,67.6,56.7,30.17,SSE,149,3.0,12.0,68,0.00,,,0.00,WeatherCatV1.15B25,2013-04-18 17:03:00,
2013-04-18 13:08:00,68.0,56.6,30.17,West,259,5.0,11.0,67,0.00,,,0.00,WeatherCatV1.15B25,2013-04-18 17:08:00,
2013-04-18 13:13:00,68.2,56.8,30.17,South,187,4.0,7.0,67,0.00,,,0.00,WeatherCatV1.15B25,2013-04-18 17:13:00,
2013-04-18 13:18:00,68.0,56.2,30.17,South,184,5.0,10.0,66,0.00,,,0.00,WeatherCatV1.15B25,2013-04-18 17:18:00,
2013-04-18 13:23:00,68.3,56.1,30.17,South,186,6.0,10.0,65,0.00,,,0.00,WeatherCatV1.15B25,2013-04-18 17:23:00,
2013-04-18 13:28:00,68.7,56.0,30.17,SSW,211,7.0,14.0,64,0.00,,,0.00,WeatherCatV1.15B25,2013-04-18 17:28:00,
2013-04-18 13:33:00,68.7,56.0,30.16,WNW,292,3.0,15.0,64,0.00,,,0.00,WeatherCatV1.15B25,2013-04-18 17:33:00,
2013-04-18 13:38:00,68.8,55.7,30.16,West,268,7.0,15.0,63,0.00,,,0.00,WeatherCatV1.15B25,2013-04-18 17:38:00,
2013-04-18 13:43:00,69.3,55.7,30.16,West,273,5.0,13.0,62,0.00,,,0.00,WeatherCatV1.15B25,2013-04-18 17:43:00,
2013-04-18 13:48:00,69.6,55.5,30.16,WSW,237,9.0,10.0,61,0.00,,,0.00,WeatherCatV1.15B25,2013-04-18 17:48:00,
2013-04-18 13:53:00,69.7,55.6,30.16,SW,236,5.0,7.0,61,0.00,,,0.00,WeatherCatV1.15B25,2013-04-18 17:53:00,
2013-04-18 13:58:00,70.1,55.6,30.16,WSW,244,8.0,8.0,60,0.00,,,0.00,WeatherCatV1.15B25,2013-04-18 17:58:00,
2013-04-18 14:03:00,70.1,55.1,30.16,SW,229,16.0,19.0,59,0.00,,,0.00,WeatherCatV1.15B25,2013-04-18 18:03:00,
2013-04-18 14:08:00,70.6,55.1,30.16,SSW,208,2.0,8.0,58,0.00,,,0.00,WeatherCatV1.15B25,2013-04-18 18:08:00,
2013-04-18 14:13:00,70.9,54.9,30.16,West,281,5.0,17.0,57,0.00,,,0.00,WeatherCatV1.15B25,2013-04-18 18:13:00,
2013-04-18 14:18:00,71.1,53.6,30.16,SW,216,8.0,9.0,54,0.00,,,0.00,WeatherCatV1.15B25,2013-04-18 18:18:00,
2013-04-18 14:23:00,70.8,54.3,30.16,South,169,5.0,9.0,56,0.00,,,0.00,WeatherCatV1.15B25,2013-04-18 18:23:00,
2013-04-18 14:28:00,71.2,53.2,30.15,ENE,59,8.0,11.0,53,0.00,,,0.00,WeatherCatV1.15B25,2013-04-18 18:28:00,
2013-04-18 14:33:00,71.5,52.9,30.15,SSE,160,1.0,10.0,52,0.00,,,0.00,WeatherCatV1.15B25,2013-04-18 18:33:00,
2013-04-18 14:38:00,71.9,53.8,30.16,SW,232,17.0,17.0,53,0.00,,,0.00,WeatherCatV1.15B25,2013-04-18 18:38:00,
2013-04-18 14:43:00,72.0,53.9,30.15,South,184,9.0,9.0,53,0.00,,,0.00,WeatherCatV1.15B25,2013-04-18 18:43:00,
2013-04-18 14:48:00,71.3,53.8,30.15,South,188,2.0,13.0,54,0.00,,,0.00,WeatherCatV1.15B25,2013-04-18 18:48:00,
2013-04-18 14:53:00,70.8,54.3,30.15,West,259,15.0,16.0,56,0.00,,,0.00,WeatherCatV1.15B25,2013-04-18 18:53:00,
2013-04-18 14:58:00,70.9,54.9,30.15,SW,215,1.0,12.0,57,0.00,,,0.00,WeatherCatV1.15B25,2013-04-18 18:58:00,
2013-04-18 15:03:00,71.6,54.1,30.15,WSW,250,12.0,12.0,54,0.00,,,0.00,WeatherCatV1.15B25,2013-04-18 19:03:00,
2013-04-18 15:08:00,71.3,53.8,30.15,WSW,240,9.0,15.0,54,0.00,,,0.00,WeatherCatV1.15B25,2013-04-18 19:08:00,
2013-04-18 15:13:00,71.3,54.3,30.14,South,178,1.0,9.0,55,0.00,,,0.00,WeatherCatV1.15B25,2013-04-18 19:13:00,
2013-04-18 15:18:00,71.3,54.3,30.14,South,189,0.0,6.0,55,0.00,,,0.00,WeatherCatV1.15B25,2013-04-18 19:18:00,
2013-04-18 15:23:00,71.3,54.8,30.14,WSW,252,6.0,14.0,56,0.00,,,0.00,WeatherCatV1.15B25,2013-04-18 19:23:00,
2013-04-18 15:28:00,71.1,55.1,30.14,East,97,6.0,10.0,57,0.00,,,0.00,WeatherCatV1.15B25,2013-04-18 19:28:00,
2013-04-18 15:33:00,71.4,54.4,30.13,ENE,67,3.0,13.0,55,0.00,,,0.00,WeatherCatV1.15B25,2013-04-18 19:33:00,
2013-04-18 15:38:00,71.7,54.7,30.13,SE,134,4.0,6.0,55,0.00,,,0.00,WeatherCatV1.15B25,2013-04-18 19:38:00,
2013-04-18 15:43:00,71.3,54.8,30.13,West,277,4.0,10.0,56,0.00,,,0.00,WeatherCatV1.15B25,2013-04-18 19:43:00,
2013-04-18 15:48:00,71.5,54.0,30.12,South,179,6.0,9.0,54,0.00,,,0.00,WeatherCatV1.15B25,2013-04-18 19:48:00,
2013-04-18 15:53:00,72.1,53.0,30.11,West,264,4.0,11.0,51,0.00,,,0.00,WeatherCatV1.15B25,2013-04-18 19:53:00,
2013-04-18 15:58:00,72.2,53.6,30.11,South,189,5.0,14.0,52,0.00,,,0.00,WeatherCatV1.15B25,2013-04-18 19:58:00,
2013-04-18 16:03:00,72.2,54.1,30.11,SE,146,8.0,9.0,53,0.00,,,0.00,WeatherCatV1.15B25,2013-04-18 20:03:00,
2013-04-18 16:08:00,72.3,54.2,30.10,South,171,1.0,7.0,53,0.00,,,0.00,WeatherCatV1.15B25,2013-04-18 20:08:00,
2013-04-18 16:13:00,72.4,53.2,30.10,West,277,3.0,12.0,51,0.00,,,0.00,WeatherCatV1.15B25,2013-04-18 20:13:00,
2013-04-18 16:18:00,72.3,52.6,30.10,SSW,194,5.0,10.0,50,0.00,,,0.00,WeatherCatV1.15B25,2013-04-18 20:18:00,
2013-04-18 16:23:00,72.1,53.5,30.10,West,276,6.0,14.0,52,0.00,,,0.00,WeatherCatV1.15B25,2013-04-18 20:23:00,
2013-04-18 16:28:00,71.9,53.3,30.10,ESE,123,3.0,11.0,52,0.00,,,0.00,WeatherCatV1.15B25,2013-04-18 20:28:00,
2013-04-18 16:33:00,72.3,53.7,30.10,South,171,7.0,8.0,52,0.00,,,0.00,WeatherCatV1.15B25,2013-04-18 20:33:00,
2013-04-18 16:38:00,72.6,53.4,30.10,SW,234,13.0,13.0,51,0.00,,,0.00,WeatherCatV1.15B25,2013-04-18 20:38:00,
2013-04-18 16:43:00,72.6,53.4,30.10,WSW,248,3.0,9.0,51,0.00,,,0.00,WeatherCatV1.15B25,2013-04-18 20:43:00,
2013-04-18 16:48:00,72.9,53.7,30.09,WNW,289,9.0,16.0,51,0.00,,,0.00,WeatherCatV1.15B25,2013-04-18 20:48:00,
2013-04-18 16:58:00,72.5,53.3,30.09,West,269,4.0,13.0,51,0.00,,,0.00,WeatherCatV1.15B25,2013-04-18 20:58:00,
2013-04-18 17:03:00,72.4,53.8,30.10,WSW,246,6.0,10.0,52,0.00,,,0.00,WeatherCatV1.15B25,2013-04-18 21:03:00,
2013-04-18 17:08:00,72.4,53.8,30.09,SE,130,2.0,9.0,52,0.00,,,0.00,WeatherCatV1.15B25,2013-04-18 21:08:00,
2013-04-18 17:13:00,72.2,53.6,30.09,SSW,205,0.0,7.0,52,0.00,,,0.00,WeatherCatV1.15B25,2013-04-18 21:13:00,
2013-04-18 17:18:00,72.1,54.0,30.09,NNW,334,1.0,10.0,53,0.00,,,0.00,WeatherCatV1.15B25,2013-04-18 21:18:00,
2013-04-18 17:23:00,72.1,53.5,30.09,WSW,243,7.0,13.0,52,0.00,,,0.00,WeatherCatV1.15B25,2013-04-18 21:23:00,
2013-04-18 17:28:00,72.3,54.2,30.09,SSE,165,1.0,4.0,53,0.00,,,0.00,WeatherCatV1.15B25,2013-04-18 21:28:00,
2013-04-18 17:33:00,72.2,54.1,30.09,West,281,1.0,15.0,53,0.00,,,0.00,WeatherCatV1.15B25,2013-04-18 21:33:00,
2013-04-18 17:38:00,72.1,54.0,30.09,SW,234,2.0,5.0,53,0.00,,,0.00,WeatherCatV1.15B25,2013-04-18 21:38:00,
2013-04-18 17:43:00,72.1,53.5,30.09,SE,137,2.0,8.0,52,0.00,,,0.00,WeatherCatV1.15B25,2013-04-18 21:43:00,
2013-04-18 17:48:00,72.0,53.4,30.09,SSW,204,6.0,7.0,52,0.00,,,0.00,WeatherCatV1.15B25,2013-04-18 21:48:00,
2013-04-18 17:53:00,71.7,53.1,30.09,ESE,123,1.0,11.0,52,0.00,,,0.00,WeatherCatV1.15B25,2013-04-18 21:53:00,
2013-04-18 17:58:00,71.5,52.9,30.09,WSW,250,4.0,13.0,52,0.00,,,0.00,WeatherCatV1.15B25,2013-04-18 21:58:00,
2013-04-18 18:03:00,71.4,53.4,30.08,WSW,256,5.0,5.0,53,0.00,,,0.00,WeatherCatV1.15B25,2013-04-18 22:03:00,
2013-04-18 18:08:00,71.4,54.4,30.08,WSW,246,0.0,5.0,55,0.00,,,0.00,WeatherCatV1.15B25,2013-04-18 22:08:00,
2013-04-18 18:13:00,71.2,55.2,30.08,West,281,3.0,12.0,57,0.00,,,0.00,WeatherCatV1.15B25,2013-04-18 22:13:00,
2013-04-18 18:18:00,70.9,54.9,30.07,WNW,284,3.0,5.0,57,0.00,,,0.00,WeatherCatV1.15B25,2013-04-18 22:18:00,
2013-04-18 18:23:00,70.8,55.3,30.07,South,180,2.0,10.0,58,0.00,,,0.00,WeatherCatV1.15B25,2013-04-18 22:23:00,
2013-04-18 18:28:00,70.7,55.2,30.07,WSW,257,1.0,8.0,58,0.00,,,0.00,WeatherCatV1.15B25,2013-04-18 22:28:00,
2013-04-18 18:33:00,70.6,55.1,30.07,WNW,288,5.0,7.0,58,0.00,,,0.00,WeatherCatV1.15B25,2013-04-18 22:33:00,
2013-04-18 18:38:00,70.5,55.0,30.07,SW,234,2.0,2.0,58,0.00,,,0.00,WeatherCatV1.15B25,2013-04-18 22:38:00,
2013-04-18 18:43:00,70.4,54.9,30.07,North,0,2.0,11.0,58,0.00,,,0.00,WeatherCatV1.15B25,2013-04-18 22:43:00,
2013-04-18 18:48:00,70.3,55.3,30.07,West,264,5.0,6.0,59,0.00,,,0.00,WeatherCatV1.15B25,2013-04-18 22:48:00,
2013-04-18 18:53:00,70.3,54.8,30.07,WSW,250,6.0,6.0,58,0.00,,,0.00,WeatherCatV1.15B25,2013-04-18 22:53:00,
2013-04-18 18:58:00,70.3,55.3,30.07,East,81,0.0,7.0,59,0.00,,,0.00,WeatherCatV1.15B25,2013-04-18 22:58:00,
2013-04-18 19:03:00,70.3,55.3,30.07,SW,226,2.0,10.0,59,0.00,,,0.00,WeatherCatV1.15B25,2013-04-18 23:03:00,
2013-04-18 19:08:00,70.4,55.4,30.07,South,178,3.0,5.0,59,0.00,,,0.00,WeatherCatV1.15B25,2013-04-18 23:08:00,
2013-04-18 19:13:00,70.4,55.4,30.07,South,190,0.0,4.0,59,0.00,,,0.00,WeatherCatV1.15B25,2013-04-18 23:13:00,
2013-04-18 19:18:00,70.4,55.4,30.07,SSW,193,4.0,8.0,59,0.00,,,0.00,WeatherCatV1.15B25,2013-04-18 23:18:00,
2013-04-18 19:23:00,70.3,55.7,30.07,WSW,248,3.0,7.0,60,0.00,,,0.00,WeatherCatV1.15B25,2013-04-18 23:23:00,
2013-04-18 19:28:00,70.2,55.7,30.06,West,271,0.0,2.0,60,0.00,,,0.00,WeatherCatV1.15B25,2013-04-18 23:28:00,
2013-04-18 19:33:00,70.0,55.5,30.06,SW,230,6.0,8.0,60,0.00,,,0.00,WeatherCatV1.15B25,2013-04-18 23:33:00,
2013-04-18 19:38:00,69.8,55.7,30.06,SW,232,4.0,6.0,61,0.00,,,0.00,WeatherCatV1.15B25,2013-04-18 23:38:00,
2013-04-18 19:43:00,69.6,56.0,30.06,SW,231,4.0,9.0,62,0.00,,,0.00,WeatherCatV1.15B25,2013-04-18 23:43:00,
2013-04-18 19:48:00,69.5,55.9,30.06,West,261,5.0,7.0,62,0.00,,,0.00,WeatherCatV1.15B25,2013-04-18 23:48:00,
2013-04-18 19:53:00,69.4,56.2,30.06,West,269,3.0,4.0,63,0.00,,,0.00,WeatherCatV1.15B25,2013-04-18 23:53:00,
2013-04-18 19:58:00,69.2,56.1,30.07,South,191,3.0,10.0,63,0.00,,,0.00,WeatherCatV1.15B25,2013-04-18 23:58:00,
2013-04-18 20:03:00,69.1,56.0,30.06,West,264,3.0,6.0,63,0.00,,,0.00,WeatherCatV1.15B25,2013-04-19 00:03:00,
2013-04-18 20:08:00,69.1,56.0,30.06,WSW,258,4.0,12.0,63,0.00,,,0.00,WeatherCatV1.15B25,2013-04-19 00:08:00,
2013-04-18 20:13:00,69.0,55.9,30.06,SSE,167,3.0,7.0,63,0.00,,,0.00,WeatherCatV1.15B25,2013-04-19 00:13:00,
2013-04-18 20:18:00,68.9,56.2,30.06,WSW,238,2.0,6.0,64,0.00,,,0.00,WeatherCatV1.15B25,2013-04-19 00:18:00,
2013-04-18 20:23:00,68.8,56.1,30.06,WNW,290,2.0,7.0,64,0.00,,,0.00,WeatherCatV1.15B25,2013-04-19 00:23:00,
2013-04-18 20:28:00,68.8,56.1,30.06,NNE,16,4.0,4.0,64,0.00,,,0.00,WeatherCatV1.15B25,2013-04-19 00:28:00,
2013-04-18 20:33:00,68.8,56.5,30.06,WSW,246,5.0,7.0,65,0.00,,,0.00,WeatherCatV1.15B25,2013-04-19 00:33:00,
2013-04-18 20:38:00,68.7,56.4,30.06,NNW,330,1.0,4.0,65,0.00,,,0.00,WeatherCatV1.15B25,2013-04-19 00:38:00,
2013-04-18 20:43:00,68.7,56.4,30.06,SW,225,3.0,5.0,65,0.00,,,0.00,WeatherCatV1.15B25,2013-04-19 00:43:00,
2013-04-18 20:48:00,68.7,56.4,30.06,West,266,0.0,8.0,65,0.00,,,0.00,WeatherCatV1.15B25,2013-04-19 00:48:00,
2013-04-18 20:53:00,68.6,56.8,30.06,WSW,243,1.0,4.0,66,0.00,,,0.00,WeatherCatV1.15B25,2013-04-19 00:53:00,
2013-04-18 20:58:00,68.5,56.7,30.06,WSW,248,4.0,7.0,66,0.00,,,0.00,WeatherCatV1.15B25,2013-04-19 00:58:00,
2013-04-18 21:03:00,68.4,57.0,30.06,WSW,246,7.0,7.0,67,0.00,,,0.00,WeatherCatV1.15B25,2013-04-19 01:03:00,
2013-04-18 21:08:00,68.3,57.3,30.06,SSE,150,0.0,8.0,68,0.00,,,0.00,WeatherCatV1.15B25,2013-04-19 01:08:00,
2013-04-18 21:13:00,68.3,57.7,30.06,NW,310,1.0,3.0,69,0.00,,,0.00,WeatherCatV1.15B25,2013-04-19 01:13:00,
2013-04-18 21:18:00,68.2,58.0,30.07,SW,215,4.0,6.0,70,0.00,,,0.00,WeatherCatV1.15B25,2013-04-19 01:18:00,
2013-04-18 21:23:00,68.1,58.3,30.06,ENE,72,0.0,12.0,71,0.00,,,0.00,WeatherCatV1.15B25,2013-04-19 01:23:00,
2013-04-18 21:28:00,68.0,58.2,30.06,WNW,285,4.0,7.0,71,0.00,,,0.00,WeatherCatV1.15B25,2013-04-19 01:28:00,
2013-04-18 21:33:00,67.9,58.5,30.06,WNW,293,4.0,6.0,72,0.00,,,0.00,WeatherCatV1.15B25,2013-04-19 01:33:00,
2013-04-18 21:38:00,67.7,58.7,30.06,WNW,292,4.0,15.0,73,0.00,,,0.00,WeatherCatV1.15B25,2013-04-19 01:38:00,
2013-04-18 21:43:00,67.6,59.0,30.06,WNW,286,3.0,8.0,74,0.00,,,0.00,WeatherCatV1.15B25,2013-04-19 01:43:00,
2013-04-18 21:48:00,67.5,58.9,30.06,SSW,192,3.0,10.0,74,0.00,,,0.00,WeatherCatV1.15B25,2013-04-19 01:48:00,
2013-04-18 21:53:00,67.5,58.9,30.05,South,187,1.0,8.0,74,0.00,,,0.00,WeatherCatV1.15B25,2013-04-19 01:53:00,
2013-04-18 21:58:00,67.4,59.2,30.06,NNE,28,4.0,10.0,75,0.00,,,0.00,WeatherCatV1.15B25,2013-04-19 01:58:00,
2013-04-18 22:03:00,67.4,58.8,30.06,West,273,2.0,4.0,74,0.00,,,0.00,WeatherCatV1.15B25,2013-04-19 02:03:00,
2013-04-18 22:08:00,67.4,59.2,30.06,West,269,7.0,9.0,75,0.00,,,0.00,WeatherCatV1.15B25,2013-04-19 02:08:00,
2013-04-18 22:13:00,67.4,59.2,30.06,SSE,157,3.0,12.0,75,0.00,,,0.00,WeatherCatV1.15B25,2013-04-19 02:13:00,
2013-04-18 22:18:00,67.4,59.2,30.06,SW,221,10.0,11.0,75,0.00,,,0.00,WeatherCatV1.15B25,2013-04-19 02:18:00,
2013-04-18 22:23:00,67.4,59.2,30.06,WNW,289,1.0,11.0,75,0.00,,,0.00,WeatherCatV1.15B25,2013-04-19 02:23:00,
2013-04-18 22:28:00,67.4,58.8,30.06,WSW,257,7.0,7.0,74,0.00,,,0.00,WeatherCatV1.15B25,2013-04-19 02:28:00,
2013-04-18 22:33:00,67.4,59.2,30.05,NW,317,4.0,14.0,75,0.00,,,0.00,WeatherCatV1.15B25,2013-04-19 02:33:00,
2013-04-18 22:38:00,67.4,59.2,30.06,SSW,210,2.0,7.0,75,0.00,,,0.00,WeatherCatV1.15B25,2013-04-19 02:38:00,
2013-04-18 22:43:00,67.3,59.1,30.05,NNE,14,4.0,11.0,75,0.00,,,0.00,WeatherCatV1.15B25,2013-04-19 02:43:00,
2013-04-18 22:48:00,67.2,59.0,30.05,WSW,239,5.0,12.0,75,0.00,,,0.00,WeatherCatV1.15B25,2013-04-19 02:48:00,
2013-04-18 22:53:00,67.1,59.3,30.05,South,169,1.0,3.0,76,0.00,,,0.00,WeatherCatV1.15B25,2013-04-19 02:53:00,
2013-04-18 22:58:00,67.0,59.2,30.04,WSW,246,9.0,9.0,76,0.00,,,0.00,WeatherCatV1.15B25,2013-04-19 02:58:00,
2013-04-18 23:03:00,66.9,58.7,30.04,South,187,9.0,11.0,75,0.00,,,0.00,WeatherCatV1.15B25,2013-04-19 03:03:00,
2013-04-18 23:08:00,66.9,59.1,30.04,WSW,240,6.0,15.0,76,0.00,,,0.00,WeatherCatV1.15B25,2013-04-19 03:08:00,
2013-04-18 23:13:00,66.8,59.0,30.05,SSW,211,7.0,11.0,76,0.00,,,0.00,WeatherCatV1.15B25,2013-04-19 03:13:00,
2013-04-18 23:18:00,66.8,59.0,30.04,SW,221,6.0,8.0,76,0.00,,,0.00,WeatherCatV1.15B25,2013-04-19 03:18:00,
2013-04-18 23:23:00,66.8,59.0,30.04,East,87,3.0,4.0,76,0.00,,,0.00,WeatherCatV1.15B25,2013-04-19 03:23:00,
2013-04-18 23:28:00,66.8,59.3,30.04,West,273,4.0,11.0,77,0.00,,,0.00,WeatherCatV1.15B25,2013-04-19 03:28:00,
2013-04-18 23:33:00,66.8,59.3,30.04,SW,219,1.0,11.0,77,0.00,,,0.00,WeatherCatV1.15B25,2013-04-19 03:33:00,
2013-04-18 23:38:00,66.8,59.3,30.03,SSE,155,1.0,3.0,77,0.00,,,0.00,WeatherCatV1.15B25,2013-04-19 03:38:00,
2013-04-18 23:43:00,66.7,59.3,30.03,SSW,196,6.0,6.0,77,0.00,,,0.00,WeatherCatV1.15B25,2013-04-19 03:43:00,
2013-04-18 23:48:00,66.6,59.5,30.03,SW,236,7.0,9.0,78,0.00,,,0.00,WeatherCatV1.15B25,2013-04-19 03:48:00,
2013-04-18 23:53:00,66.6,59.5,30.02,SSE,155,0.0,6.0,78,0.00,,,0.00,WeatherCatV1.15B25,2013-04-19 03:53:00,
2013-04-18 23:58:00,66.5,59.4,30.02,SE,127,4.0,10.0,78,0.00,,,0.00,WeatherCatV1.15B25,2013-04-19 03:58:00,